Regional Weather Roundup
Issued by NWS

Home | Current Version | Previous Version | Text Only | Print | Product List | Glossary Off
Versions: 1 2 3 4 5 6 7 8 9 10 11 12 13 14 15 16 17 18 19 20 21 22 23 24 25 26 27 28 29 30 31 32 33 34 35 36 37 38 39 40 41 42 43 44 45 46 47 48 49 50

000
ASUS43 KBIS 212002
RWRND

NORTH DAKOTA REGIONAL WEATHER ROUNDUP
NATIONAL WEATHER SERVICE BISMARCK ND
300 PM CDT FRI JUL 21 2017

NOTE: "FAIR" INDICATES FEW OR NO CLOUDS BELOW 12,000 FEET WITH NO
SIGNIFICANT WEATHER AND/OR OBSTRUCTIONS TO VISIBILITY.


NDZ001>003-009>011-017-212100-
NORTHWEST NORTH DAKOTA

CITY           SKY/WX    TMP DP  RH WIND       PRES   REMARKS
WILLISTON      SUNNY     90  58  33 VRB3      29.82F
MINOT          SUNNY     83  64  52 SW7       29.78R
MINOT AFB      SUNNY     80  65  58 W7        29.78R
$$

NDZ018>021-031>035-040>046-212100-
SOUTHWEST NORTH DAKOTA

CITY           SKY/WX    TMP DP  RH WIND       PRES   REMARKS
BISMARCK       PTSUNNY   89  69  51 S5        29.81S HX  93
DICKINSON      SUNNY     87  63  44 W7        29.84S
GARRISON         N/A     86  63  45 SE7       29.79F
HETTINGER ARPT SUNNY     90  61  37 MISG      29.87F HX  90
$$

NDZ004>008-012>016-024-026-027-054-212100-
NORTHEAST NORTH DAKOTA

CITY           SKY/WX    TMP DP  RH WIND       PRES   REMARKS
GRAND FORKS    PTSUNNY   83  72  69 W8        29.77R THUNDER
GRND FRKS AFB  TSTM      79  71  77 W3        29.78R
DEVILS LAKE    LGT RAIN  78  69  73 NW7       29.83S
$$

NDZ022-023-025-028>030-036>039-047>053-212100-
SOUTHEAST NORTH DAKOTA

CITY           SKY/WX    TMP DP  RH WIND       PRES   REMARKS
FARGO          SUNNY     92  71  50 N5        29.75F HX  98
JAMESTOWN      SUNNY     91  65  41 CALM      29.78F HX  93
$$





USA.gov is the U.S. government's official web portal to all federal, state and local government web resources and services.